Tracking 29528 objects as of 12-Sep-2024
HD Live streaming from Space Station
objects crossing your sky now

FENGYUN 1C DEB

Track FENGYUN 1C DEB now!
10-day predictions


NORAD ID: 30028
Int'l Code: 1999-025ND
Perigee: 596.8 km
Apogee: 860.2 km
Inclination: 98.1 °
Period: 99.2 minutes
Semi major axis: 7099 km
RCS: 0.049 m2 (small)
Launch date: May 10, 1999
Source: People's Republic of China (PRC)
Launch site: Taiyaun Space Center, China (TSC)

Note: This is SATELLITE DEBRIS
Your satellite tracking list
Your tracking list is empty




NASA's NSSDC Master Catalog

Two Line Element Set (TLE):
1 30028U 99025ND  24256.43402119  .00005330  00000-0  10802-2 0  9995
2 30028  98.1255 255.4206 0185536 200.1957 304.3345 14.51309359930926
Source of the keplerian elements: AFSPC